Temperature
7 7 7 7 7 7 7 6 6 6 6 6 6 6 5 5 5 5 5 5 4 4 4 4 4 4 3 3 3 3 3 2 2 2 3 2 2 2 2 2 3 3 3
7 7 7 7 7 7 6 6 6 6 6 5 5 5 5 5 5 5 4 4 4 4 4 3 3 3 3 3 3 3 2 2 2 1 2 2 2 2 2 2 2 2 2
7 7 7 7 7 6 6 6 6 6 5 5 5 5 5 4 4 4 4 4 4 3 3 3 3 3 3 2 2 2 2 1 1 1 1 1 1 1 1 1 1 1 2
7 7 7 7 6 6 6 6 5 5 5 5 5 5 4 4 4 4 3 3 3 3 3 3 2 2 2 2 2 1 1 1 0 0 0 0 1 0 0 1 1 1 1
7 6 6 6 6 6 6 5 5 5 5 5 4 4 4 4 4 3 3 3 3 3 2 2 2 2 1 1 1 1 0 -0 -0 -1 -1 -1 -1 -1 -1 -0 -0 0 0
6 6 6 6 6 6 5 5 5 5 5 4 4 4 4 3 3 3 3 2 2 2 2 2 1 1 1 0 -0 -0 -1 -1 -1 -1 -1 -2 -2 -2 -2 -2 -2 -1 -1
6 6 6 6 5 5 5 5 5 4 4 4 4 4 3 3 3 2 2 2 2 2 1 1 1 0 0 -0 -1 -1 -1 -2 -2 -2 -2 -2 -2 -2 -2 -2 -2 -3 -2
6 6 5 5 5 5 4 4 4 4 4 4 3 3 3 3 2 2 1 1 1 1 1 1 0 -0 -1 -1 -1 -1 -2 -2 -2 -2 -3 -3 -3 -3 -3 -3 -3 -3 -3
5 5 5 5 5 4 4 4 4 3 3 3 3 3 3 2 2 2 1 1 1 1 1 0 -0 -0 -1 -2 -2 -2 -2 -2 -3 -3 -3 -3 -3 -3 -4 -4 -4 -4 -3
5 4 4 4 4 4 4 3 3 3 3 3 3 2 2 2 2 1 1 1 1 0 0 -0 -1 -1 -1 -2 -2 -2 -3 -3 -3 -3 -3 -3 -4 -4 -4 -4 -4 -5 -5
4 4 4 4 3 3 3 3 3 3 2 2 2 2 2 2 1 1 0 0 0 -0 -0 -0 -1 -1 -2 -2 -3 -3 -3 -3 -4 -4 -4 -4 -4 -4 -4 -5 -5 -5 -6
3 3 3 3 3 3 3 2 2 2 2 2 2 1 1 1 1 0 0 -0 -0 -1 -1 -1 -1 -2 -2 -3 -3 -3 -4 -4 -4 -4 -4 -4 -4 -5 -5 -5 -5 -6 -6
3 3 3 3 3 2 2 2 2 2 1 1 1 1 1 1 0 -0 -0 -1 -1 -1 -1 -2 -2 -2 -3 -3 -3 -4 -4 -4 -4 -5 -5 -5 -5 -5 -5 -6 -6 -6 -6
3 3 2 2 2 2 2 1 1 1 1 1 1 0 0 0 -0 -1 -1 -1 -1 -2 -2 -2 -3 -3 -3 -3 -4 -4 -4 -5 -5 -5 -5 -5 -5 -6 -6 -6 -6 -6 -6
2 2 2 2 2 1 1 1 1 1 0 0 -0 -0 -1 -1 -1 -1 -2 -2 -2 -2 -3 -3 -3 -3 -4 -4 -4 -4 -5 -5 -5 -5 -5 -6 -6 -6 -6 -7 -7 -7 -7
2 2 1 1 1 1 1 1 1 0 -0 -1 -1 -1 -1 -1 -2 -2 -2 -2 -3 -3 -3 -3 -3 -4 -4 -4 -4 -5 -5 -5 -5 -6 -6 -6 -6 -6 -7 -7 -7 -7 -7
1 1 1 1 1 0 0 -0 -0 0 -0 -1 -1 -1 -2 -2 -2 -2 -2 -3 -3 -3 -4 -4 -4 -4 -4 -4 -5 -5 -5 -5 -6 -6 -6 -6 -7 -7 -7 -7 -8 -8 -8
1 1 1 0 0 -0 -0 -1 -1 -1 -1 -1 -1 -2 -2 -2 -3 -3 -3 -3 -3 -4 -4 -4 -4 -4 -4 -5 -5 -5 -5 -6 -6 -6 -6 -7 -7 -7 -8 -8 -8 -8 -8
1 0 0 0 -0 -0 -1 -1 -1 -2 -2 -2 -2 -2 -2 -3 -3 -3 -3 -4 -4 -4 -4 -4 -4 -5 -5 -5 -5 -6 -6 -6 -6 -6 -7 -7 -7 -8 -8 -8 -8 -8 -9
0 0 -0 -0 -0 -1 -1 -1 -2 -2 -2 -3 -3 -3 -3 -3 -3 -3 -4 -4 -4 -4 -4 -4 -5 -5 -5 -5 -6 -6 -6 -6 -6 -7 -7 -7 -8 -8 -8 -8 -9 -9 -9
-0 -0 -0 -1 -1 -1 -1 -2 -2 -3 -3 -3 -3 -3 -3 -4 -4 -4 -4 -4 -4 -4 -4 -5 -5 -5 -5 -6 -6 -6 -6 -6 -7 -7 -7 -7 -8 -8 -8 -9 -9 -9 -9
-1 -1 -1 -1 -1 -1 -2 -2 -3 -3 -3 -3 -3 -3 -4 -4 -4 -4 -4 -4 -4 -4 -5 -5 -5 -5 -6 -6 -6 -6 -6 -6 -7 -7 -7 -8 -8 -8 -9 -9 -9 -9 -9
-1 -1 -1 -1 -2 -2 -2 -2 -3 -3 -3 -3 -4 -4 -4 -4 -4 -4 -4 -4 -5 -5 -5 -5 -5 -6 -6 -6 -6 -6 -7 -7 -7 -7 -8 -8 -8 -8 -9 -9 -9 -9 -9
-1 -1 -2 -2 -2 -2 -2 -3 -3 -3 -4 -4 -4 -4 -4 -4 -5 -5 -5 -5 -5 -5 -5 -5 -5 -6 -6 -6 -6 -7 -7 -7 -7 -8 -8 -8 -8 -9 -9 -9 -9 -9 -10
-2 -2 -2 -2 -2 -2 -3 -3 -3 -4 -4 -4 -4 -4 -4 -4 -5 -5 -5 -5 -5 -5 -5 -5 -6 -6 -6 -6 -6 -7 -7 -7 -8 -8 -8 -8 -9 -9 -9 -9 -9 -10 -10
-2 -2 -2 -2 -2 -3 -3 -3 -3 -4 -4 -4 -4 -5 -5 -5 -5 -5 -5 -5 -5 -5 -5 -6 -6 -6 -6 -6 -7 -7 -7 -8 -8 -8 -8 -9 -9 -9 -9 -9 -10 -10 -10
Wind_Speed
5 5 5 5 4 4 4 5 5 4 4 3 3 3 3 2 2 2 2 2 2 1 1 1 2 2 1 2 1 1 2 2 5 4 2 3 4 5 7 9 9 9 9
5 5 5 5 4 5 5 5 5 5 4 4 4 4 3 3 3 3 3 3 3 2 2 2 2 2 2 2 2 2 2 3 4 6 4 3 4 4 5 5 7 8 9
4 5 5 5 5 6 6 6 5 5 5 4 4 4 4 4 4 4 4 4 4 4 3 3 3 2 3 2 2 3 3 3 3 4 5 3 3 3 4 5 5 5 8
4 4 6 6 6 6 6 6 5 5 5 5 5 5 5 5 4 4 4 4 4 4 3 4 4 3 4 3 3 3 3 3 3 4 4 4 3 3 3 4 6 5 6
4 5 6 5 5 5 5 5 5 5 6 5 5 5 5 4 5 5 5 5 5 4 4 4 4 5 5 4 3 3 3 3 3 3 4 3 4 3 3 3 5 7 5
4 5 5 4 4 5 5 5 5 5 5 4 5 5 5 5 8 9 7 5 5 5 5 4 4 5 6 7 7 5 4 3 3 3 3 4 4 3 3 4 5 6 5
4 5 4 4 4 5 4 4 5 5 4 5 5 5 6 8 10 10 10 6 5 5 5 4 4 4 5 4 5 5 5 5 5 3 4 4 4 3 3 4 4 5 6
4 5 4 4 5 4 4 5 5 4 4 5 5 6 6 8 11 11 10 5 5 6 6 5 5 5 4 4 4 3 3 3 4 2 3 3 3 3 3 3 5 6 6
5 5 5 4 5 4 5 5 5 4 5 5 4 5 6 8 10 10 9 4 4 5 5 5 5 5 8 8 4 4 3 3 4 4 4 4 5 6 4 2 3 4 5
6 6 5 4 5 6 6 5 4 4 5 5 5 5 6 7 9 10 10 4 5 4 4 5 8 8 9 8 5 4 5 4 2 2 3 3 3 4 4 2 2 3 3
5 5 5 5 5 5 5 4 4 4 4 4 5 5 5 7 8 10 10 5 6 5 5 4 5 9 9 9 7 4 6 4 2 2 2 2 2 2 2 2 2 2 3
4 5 5 4 4 3 4 4 3 3 4 4 4 5 4 5 7 9 11 10 8 6 5 4 5 8 9 9 7 6 7 4 1 1 2 2 2 3 3 3 4 5 5
4 5 5 4 4 3 4 4 3 3 4 4 4 5 5 4 5 10 11 11 11 6 5 7 7 8 8 6 6 7 5 2 2 2 3 3 2 3 2 3 4 5 6
5 5 4 4 4 3 3 4 4 4 4 4 5 6 5 4 4 5 5 6 8 7 4 6 7 7 5 5 4 3 2 2 3 3 2 2 2 2 2 2 3 4 4
5 5 4 4 4 4 4 4 5 6 6 6 6 5 5 6 7 9 6 5 4 5 3 2 2 2 3 3 2 2 2 2 2 2 2 2 2 2 2 2 2 3 3
5 5 4 4 4 4 4 5 7 9 11 12 11 9 7 9 10 10 11 11 10 9 5 3 4 5 5 4 4 4 3 3 3 3 3 3 2 3 3 3 3 3 4
5 5 4 4 4 4 4 5 6 6 8 10 11 12 11 11 11 11 10 10 10 9 6 5 5 5 5 5 4 4 4 4 3 3 3 3 3 3 3 3 3 4 5
6 6 6 5 5 5 5 5 5 5 6 5 7 10 11 11 11 11 10 8 6 7 5 5 5 5 5 5 5 4 4 3 3 3 3 3 3 3 3 3 4 4 5
5 5 5 5 5 5 5 5 5 6 6 6 5 5 9 9 10 10 9 5 6 6 5 5 5 5 5 5 5 5 4 4 4 4 4 4 3 3 3 4 4 7 6
5 8 6 5 5 5 5 5 5 6 6 6 6 5 4 4 4 5 5 5 6 6 6 6 5 5 5 5 5 4 4 4 4 4 4 4 4 4 4 5 4 5 5
5 6 7 5 5 5 5 6 6 6 6 7 7 7 8 5 6 6 6 6 6 6 6 5 5 5 5 4 5 5 5 5 5 5 4 4 4 4 4 4 4 5 5
5 5 5 5 5 5 6 6 6 6 7 8 7 7 11 7 6 6 6 6 6 5 5 5 5 5 5 5 5 5 5 5 5 5 4 4 4 4 4 4 4 4 4
5 5 5 5 5 8 7 6 6 7 7 7 7 6 6 6 6 6 6 5 5 4 4 5 5 4 4 5 5 6 6 6 5 5 5 4 4 4 4 4 5 5 5
5 6 6 6 6 6 6 6 6 7 7 7 7 7 7 6 6 6 5 5 4 4 4 5 5 6 6 5 6 7 7 7 6 6 6 5 4 4 4 4 4 5 5
6 6 6 6 6 6 7 7 7 7 7 7 7 7 6 6 6 5 5 4 5 5 5 5 5 6 7 8 7 7 8 9 8 6 6 4 4 4 4 4 4 5 5
6 7 6 6 6 7 7 7 7 7 7 7 7 6 6 6 5 5 4 4 4 4 4 5 6 7 7 7 8 9 9 9 9 8 6 4 4 4 4 4 5 5 5
Wind_Direction
238 235 238 241 235 230 232 240 242 244 238 237 237 238 244 253 255 234 245 244 240 270 272 249 271 283 292 305 299 283 267 250 265 285 288 311 315 323 330 338 340 339 337
241 237 239 242 237 236 240 241 237 239 234 231 229 230 235 238 234 226 237 237 231 241 250 250 266 271 280 285 286 286 279 266 262 283 297 308 306 311 316 321 334 337 331
243 241 245 243 239 241 243 242 234 233 234 230 224 228 231 231 228 225 224 230 229 232 233 235 249 241 260 266 267 273 277 280 265 273 292 299 302 315 321 321 324 323 330
244 243 248 248 243 244 244 239 233 227 227 228 227 230 231 230 227 224 219 223 227 233 232 233 238 231 243 250 257 263 270 276 278 278 288 300 301 308 318 324 327 328 323
247 249 252 255 250 247 245 242 238 233 233 229 229 236 234 230 229 223 220 221 221 230 237 239 242 241 248 246 249 250 255 262 272 280 289 300 306 322 325 320 317 321 311
251 256 261 261 257 251 248 244 241 240 237 229 230 233 238 242 244 239 229 220 220 224 235 243 250 256 261 263 265 265 261 260 261 269 281 291 297 298 303 315 318 326 315
259 264 263 257 257 254 248 242 242 241 234 236 236 233 241 247 249 249 242 223 217 223 226 232 244 246 253 252 265 274 282 286 278 261 264 276 284 286 297 303 304 303 292
265 268 265 257 256 257 248 245 245 239 236 240 243 238 243 253 252 250 247 230 220 222 222 221 229 243 244 235 227 243 257 273 278 272 242 254 265 275 269 285 293 299 286
271 269 265 255 255 254 251 251 246 240 242 241 244 240 242 257 256 250 246 220 228 231 228 224 226 234 249 248 231 234 251 267 281 278 282 289 304 314 325 332 321 320 311
267 266 262 252 247 248 249 251 246 238 243 244 248 242 242 250 255 251 242 216 226 233 231 230 238 239 246 248 228 220 243 253 252 286 299 310 322 323 333 336 304 300 304
271 269 264 255 251 250 251 248 248 244 246 246 253 254 248 251 258 255 246 220 219 226 230 230 235 244 248 247 240 221 242 248 226 238 265 284 294 297 301 297 279 263 273
275 272 269 265 261 256 249 254 247 238 244 250 255 267 257 255 256 256 252 241 230 221 229 225 227 240 246 248 246 239 250 257 199 227 264 278 285 289 287 290 286 275 265
278 275 274 273 266 255 243 250 254 239 240 250 247 259 265 252 253 256 255 251 244 229 226 229 232 238 238 245 248 247 244 213 202 238 258 267 267 270 283 295 297 294 289
271 274 273 271 273 265 249 241 240 239 242 246 248 254 261 257 247 247 245 249 249 242 231 234 237 237 226 226 240 248 217 198 207 231 251 259 268 275 287 297 303 316 312
266 267 267 261 261 262 255 243 240 236 233 240 244 243 250 259 251 244 237 232 224 225 205 193 201 205 208 205 207 215 211 214 233 225 232 250 266 278 290 302 297 305 299
263 263 258 257 258 257 265 276 257 251 260 256 252 250 251 254 264 256 249 244 240 233 221 211 215 215 219 219 219 221 216 220 223 223 229 236 251 266 285 296 292 289 293
249 256 255 250 250 251 254 262 281 282 265 261 258 257 257 260 260 257 252 244 238 229 225 218 218 218 219 217 218 220 222 219 210 216 226 232 239 252 267 282 287 290 291
250 252 249 246 243 244 245 248 254 268 283 279 265 261 263 262 260 256 250 243 236 227 220 221 221 219 217 218 219 220 220 213 210 218 223 225 227 239 256 269 274 280 289
251 250 246 246 244 245 247 248 251 256 264 273 280 274 265 264 260 254 245 229 229 229 224 222 219 216 215 215 216 215 212 213 213 214 220 223 225 230 249 258 268 282 289
251 254 254 252 252 251 248 247 250 254 260 263 264 264 262 254 249 247 235 226 228 230 224 222 219 214 212 211 210 208 209 213 213 217 221 224 225 229 245 256 265 275 280
250 257 258 257 250 248 248 247 249 253 258 261 261 258 255 249 245 241 236 231 230 228 222 218 215 213 210 206 204 206 209 215 214 215 217 221 223 233 243 253 262 270 279
242 247 248 249 251 248 249 246 247 252 255 259 264 261 256 252 245 243 239 235 230 222 214 212 213 211 206 202 201 204 211 215 216 214 216 217 221 233 243 253 265 274 281
238 244 250 251 250 257 260 250 247 251 254 255 257 255 250 246 245 241 237 231 221 215 209 207 209 210 205 203 200 201 209 215 213 207 209 214 220 229 239 253 264 277 281
234 239 245 251 252 252 255 256 253 253 254 255 254 252 249 246 244 240 233 223 215 212 206 204 206 207 204 203 204 207 213 215 211 209 205 209 220 230 240 253 263 270 277
236 239 244 250 254 255 257 257 257 256 257 256 254 253 251 246 243 239 230 220 213 212 208 204 204 205 207 208 206 209 216 218 214 209 207 209 215 224 239 253 263 274 281
243 243 246 249 251 253 255 257 258 256 256 256 253 250 247 243 241 237 227 219 215 212 210 207 205 206 206 208 212 215 219 220 216 212 209 206 213 229 239 254 261 271 281
Height
1504 1504 1503 1503 1503 1502 1502 1501 1500 1500 1499 1498 1497 1496 1496 1495 1494 1493 1492 1491 1490 1489 1488 1487 1486 1486 1485 1484 1483 1482 1481 1479 1477 1474 1474 1472 1470 1468 1467 1465 1463 1461 1459
1500 1500 1500 1499 1499 1498 1498 1497 1497 1496 1495 1494 1494 1493 1492 1491 1490 1489 1488 1487 1486 1485 1484 1484 1483 1482 1481 1480 1479 1478 1477 1475 1473 1471 1469 1468 1467 1465 1463 1461 1459 1457 1455
1497 1496 1496 1495 1495 1494 1494 1493 1493 1492 1491 1490 1489 1489 1488 1487 1486 1485 1484 1483 1482 1481 1481 1480 1479 1478 1477 1476 1475 1474 1473 1471 1470 1467 1465 1464 1463 1461 1459 1457 1456 1453 1451
1493 1492 1492 1491 1491 1490 1489 1489 1488 1487 1486 1486 1485 1484 1483 1483 1482 1481 1480 1479 1478 1477 1477 1476 1475 1474 1473 1472 1471 1470 1468 1467 1466 1464 1462 1460 1459 1457 1455 1453 1451 1449 1447
1488 1488 1487 1487 1486 1486 1485 1484 1483 1482 1482 1481 1480 1479 1479 1478 1477 1476 1475 1474 1474 1473 1472 1472 1471 1470 1469 1468 1467 1466 1464 1463 1462 1460 1458 1457 1455 1453 1451 1449 1446 1444 1442
1484 1484 1483 1482 1481 1481 1480 1479 1478 1478 1477 1476 1475 1474 1474 1473 1472 1471 1471 1470 1469 1468 1467 1467 1466 1466 1465 1464 1463 1462 1460 1459 1458 1456 1455 1453 1452 1450 1448 1446 1443 1440 1437
1480 1479 1478 1477 1476 1476 1475 1474 1473 1473 1472 1471 1470 1469 1468 1468 1467 1466 1465 1464 1464 1463 1463 1462 1461 1461 1460 1460 1459 1458 1456 1455 1454 1453 1451 1450 1448 1447 1445 1443 1440 1438 1435
1476 1475 1474 1473 1472 1471 1470 1469 1469 1468 1467 1466 1465 1464 1463 1463 1462 1461 1460 1459 1458 1458 1458 1457 1457 1456 1456 1455 1454 1453 1452 1451 1450 1449 1448 1446 1445 1443 1441 1440 1437 1434 1432
1471 1470 1469 1468 1467 1466 1465 1465 1464 1463 1462 1461 1460 1459 1458 1457 1457 1456 1455 1454 1453 1453 1453 1452 1452 1451 1451 1450 1449 1448 1448 1447 1446 1445 1444 1442 1441 1440 1438 1436 1433 1430 1427
1467 1466 1465 1463 1462 1461 1460 1460 1459 1457 1456 1455 1454 1454 1453 1452 1451 1450 1450 1449 1448 1447 1447 1447 1447 1446 1446 1445 1444 1444 1443 1442 1442 1440 1440 1439 1437 1436 1434 1432 1430 1427 1424
1463 1461 1460 1459 1458 1456 1455 1454 1453 1452 1451 1450 1449 1448 1447 1446 1446 1445 1444 1443 1443 1442 1442 1441 1442 1441 1441 1440 1440 1439 1439 1438 1437 1436 1435 1434 1433 1432 1430 1428 1426 1424 1422
1458 1457 1455 1454 1453 1451 1450 1449 1448 1447 1446 1445 1443 1442 1442 1441 1440 1439 1439 1438 1437 1437 1436 1436 1436 1436 1436 1436 1435 1435 1434 1434 1433 1432 1431 1430 1429 1428 1426 1425 1423 1421 1419
1453 1452 1451 1449 1448 1447 1445 1444 1443 1442 1440 1439 1438 1436 1436 1435 1434 1434 1433 1433 1432 1432 1431 1431 1431 1431 1431 1431 1430 1430 1430 1429 1428 1427 1426 1425 1425 1423 1422 1421 1419 1417 1415
1449 1447 1446 1444 1443 1442 1440 1439 1437 1436 1435 1434 1432 1431 1430 1429 1429 1428 1428 1427 1427 1427 1426 1426 1426 1426 1426 1426 1426 1426 1425 1425 1424 1423 1422 1422 1421 1419 1418 1416 1415 1413 1411
1444 1442 1441 1439 1438 1436 1435 1434 1432 1431 1430 1429 1427 1426 1425 1423 1423 1423 1422 1422 1421 1422 1421 1421 1421 1421 1421 1421 1421 1421 1421 1421 1420 1419 1418 1418 1417 1415 1414 1413 1411 1409 1407
1438 1437 1436 1434 1432 1431 1429 1428 1427 1426 1425 1423 1422 1421 1419 1419 1418 1417 1417 1416 1416 1416 1416 1415 1416 1416 1416 1416 1416 1416 1416 1416 1416 1415 1414 1414 1412 1411 1410 1409 1407 1405 1403
1434 1432 1430 1429 1427 1426 1424 1422 1421 1420 1419 1418 1416 1415 1414 1413 1413 1412 1412 1411 1411 1411 1411 1410 1411 1411 1411 1412 1412 1412 1411 1411 1411 1410 1410 1409 1408 1407 1406 1405 1403 1401 1399
1428 1427 1425 1424 1422 1421 1419 1417 1416 1414 1412 1411 1411 1410 1409 1408 1407 1407 1407 1406 1406 1406 1405 1405 1406 1406 1406 1407 1407 1407 1407 1406 1406 1406 1405 1405 1404 1403 1402 1401 1400 1398 1396
1423 1422 1420 1418 1417 1415 1414 1412 1411 1409 1407 1405 1405 1404 1404 1402 1402 1401 1401 1401 1400 1400 1401 1401 1401 1401 1402 1402 1402 1402 1402 1402 1402 1401 1401 1401 1400 1399 1398 1397 1396 1394 1392
1417 1416 1415 1413 1411 1410 1408 1407 1405 1403 1402 1400 1399 1398 1398 1397 1396 1395 1395 1395 1395 1395 1396 1396 1396 1397 1397 1397 1397 1397 1397 1397 1397 1397 1396 1396 1396 1395 1394 1393 1392 1390 1388
1412 1410 1409 1407 1406 1404 1403 1401 1400 1398 1396 1395 1394 1393 1392 1391 1390 1390 1390 1390 1390 1390 1391 1391 1391 1392 1392 1392 1392 1392 1392 1392 1392 1392 1392 1392 1391 1391 1390 1389 1388 1386 1385
1406 1404 1403 1402 1400 1398 1397 1395 1394 1392 1390 1389 1387 1387 1386 1386 1385 1384 1384 1385 1385 1385 1386 1386 1386 1387 1387 1387 1388 1388 1388 1388 1388 1388 1388 1388 1387 1387 1386 1385 1384 1383 1381
1400 1398 1397 1396 1394 1392 1391 1389 1388 1386 1385 1383 1382 1381 1380 1380 1379 1379 1379 1379 1380 1380 1380 1381 1381 1382 1382 1382 1383 1383 1383 1383 1384 1384 1384 1384 1383 1383 1382 1381 1380 1379 1377
1394 1392 1391 1389 1388 1386 1385 1383 1382 1380 1379 1378 1376 1376 1375 1374 1374 1374 1374 1374 1375 1375 1375 1376 1376 1377 1377 1378 1378 1379 1379 1379 1379 1380 1380 1380 1379 1379 1378 1378 1377 1375 1374
1388 1386 1385 1383 1382 1381 1379 1377 1376 1374 1373 1372 1371 1370 1369 1369 1368 1368 1369 1369 1369 1370 1370 1371 1371 1372 1373 1373 1374 1374 1375 1375 1375 1376 1376 1376 1376 1375 1375 1374 1373 1372 1371
1381 1380 1379 1377 1376 1375 1373 1371 1370 1369 1367 1366 1365 1364 1364 1363 1363 1363 1363 1364 1364 1365 1365 1366 1367 1368 1368 1369 1370 1370 1371 1371 1372 1372 1372 1372 1372 1372 1371 1371 1370 1369 1367